Flag for Botswana Weather past 2 weeks in Molepolole, Botswana

Now
72 °F

Sunny.


Feels Like: 76 °F
Forecast: 64 / 89 °F
Wind: 8 mph from East

Location: Seretse Khama International Airport

Current Time: Aug 30, 2015 at 10:03:08 AM

Latest Report: Aug 30, 2015 at 9:00 AM


Visibility: 10 mi

Pressure: 30.21 "Hg (26.46 "Hg at 1145m altitude)

Humidity: 27%

Dew point: 36 °F

Location of MolepololeLocation

Historic Weather in Molepolole — Graph

°F

Molepolole temperature yesterday

Maximum temperature yesterday: 90 °F (at 3:00 PM)
Minimum temperature yesterday: 57 °F (at 6:00 AM)
Average temperature yesterday: 75 °F

Past Weeks' High & Low Weather Summary

 TemperatureHumidityPressure
High90 °F (Aug 29, 3:00 PM)82% (Aug 24, 6:00 AM)30.39 "Hg (Aug 24, 6:00 AM)
Low46 °F (Aug 17, 7:00 AM)11% (Aug 18, 4:00 PM)29.95 "Hg (Aug 19, 4:00 PM)
Average71 °F35%30.18 "Hg
* Reported Aug 15 9:00 AM — Aug 30 9:00 AM, Molepolole, Weather by CustomWeather, © 2015

Note: Actual official high and low records may vary slightly from our data, if they occured in-between our weather recording intervals... More about our weather records

Advertising

Molepolole weather history for previous 24 hours

 ConditionsComfort  
Time TempWeatherWind HumidityBarometerVisibility
9:00 AM
Sun, Aug 30
72 °FSunny.8 mph27%30.21 "Hg10 mi
8:00 AM64 °FSunny.5 mph32%30.21 "Hg10 mi
7:00 AM59 °FSunny.7 mph39%30.18 "Hg10 mi
6:00 AM59 °FSunny.7 mph42%30.18 "Hg10 mi
5:00 AM61 °FClear.7 mph39%30.15 "Hg10 mi
4:00 AM63 °FClear.6 mph34%30.15 "Hg10 mi
2:00 AM63 °FClear.7 mph34%30.15 "Hg10 mi
1:00 AM64 °FClear.5 mph32%30.15 "Hg10 mi
12:00 AM66 °FClear.5 mph30%30.15 "Hg10 mi
11:00 PM
Sat, Aug 29
66 °FClear.2 mph30%30.18 "Hg10 mi
10:00 PM68 °FClear.2 mph28%30.15 "Hg10 mi
9:00 PM73 °FClear.6 mph23%30.15 "Hg10 mi
8:00 PM77 °FClear.6 mph21%30.15 "Hg10 mi
7:00 PM79 °FClear.6 mph20%30.12 "Hg10 mi
6:00 PM84 °FClear.6 mph16%30.12 "Hg10 mi
5:00 PM88 °FPassing clouds.8 mph13%30.09 "HgN/A
4:00 PM90 °FPassing clouds.7 mph12%30.09 "HgN/A
3:00 PM90 °FPassing clouds.6 mph14%30.09 "HgN/A
2:00 PM88 °FSunny.5 mph17%30.12 "Hg10 mi
1:00 PM86 °FPassing clouds.8 mph19%30.15 "HgN/A
12:00 PM82 °FPassing clouds.6 mph23%30.18 "HgN/A
11:00 AM79 °FPassing clouds.6 mph28%30.21 "HgN/A
10:00 AM73 °FSunny.6 mph33%30.21 "Hg10 mi
Weather by CustomWeather, © 2015

See weather overviewHow to use our weather pages